Location: Unspecified
(0.0000°N, 0.0000°E)
Time: 05:27:59
(UTC+00:00)

N. Korean satellite - Pass Details

Date: 21 April 2021
Orbit: 450 x 501 km, 97.2° (Epoch: 16 May)

Event Time Altitude Azimuth Distance (km) Brightness Sun altitude
Rises 05:24:05 0° 354° (N) 2,482 10.3 -8.5°
Reaches altitude 10° 05:26:18 10° 343° (NNW) 1,602 9.2 -7.9°
Maximum altitude 05:29:19 29° 281° (WNW) 861 7.3 -7.2°
Drops below altitude 10° 05:32:20 10° 219° (SW) 1,591 8.7 -6.5°
Sets 05:34:31 0° 207° (SSW) 2,461 9.8 -5.9°
